Total_Precipitation_Accumulation
0.64 0.49 0.85 0.84 0.68 0.61 0.60 0.62 0.61 0.59 0.59 0.56 0.51 0.44 0.35 0.33 0.28 0.29 0.29 0.27 0.25 0.24 0.24 0.27 0.27 0.29 0.26 0.29 0.35 0.40 0.50 0.57 0.49 0.43 0.44 0.44 0.41 0.54 0.78 0.92 0.96 1.06 0.87
0.54 0.47 0.83 0.85 0.70 0.60 0.62 0.66 0.65 0.63 0.62 0.59 0.54 0.46 0.41 0.35 0.33 0.31 0.26 0.25 0.22 0.23 0.24 0.26 0.29 0.29 0.28 0.32 0.38 0.45 0.53 0.57 0.54 0.54 0.65 0.70 0.60 0.65 0.77 0.87 0.96 1.00 0.85
0.57 0.51 0.63 0.80 0.78 0.70 0.66 0.65 0.68 0.69 0.70 0.70 0.65 0.55 0.51 0.43 0.36 0.31 0.26 0.23 0.24 0.25 0.29 0.31 0.32 0.28 0.31 0.36 0.42 0.49 0.52 0.61 0.68 0.74 0.98 1.35 0.99 0.72 0.71 0.77 0.71 0.73 0.75
0.53 0.53 0.64 0.86 0.88 0.84 0.80 0.81 0.80 0.75 0.71 0.73 0.68 0.61 0.56 0.50 0.44 0.44 0.42 0.32 0.29 0.30 0.33 0.32 0.30 0.31 0.37 0.43 0.46 0.46 0.49 0.64 0.79 0.79 1.00 1.29 1.24 0.89 0.85 0.90 0.80 0.75 0.76
0.56 0.53 0.72 0.94 0.86 0.84 0.88 0.99 0.98 0.90 0.80 0.74 0.72 0.69 0.63 0.57 0.57 0.63 0.53 0.45 0.41 0.41 0.44 0.45 0.42 0.41 0.48 0.52 0.50 0.49 0.57 0.74 0.82 0.73 0.87 1.06 1.43 1.19 0.93 1.00 0.96 0.80 0.74
0.45 0.46 0.69 0.99 0.90 0.87 0.92 1.07 0.98 0.92 0.90 0.83 0.82 0.82 0.78 0.73 0.73 0.72 0.67 0.64 0.57 0.55 0.55 0.57 0.55 0.53 0.57 0.57 0.54 0.60 0.74 0.82 0.75 0.92 0.97 1.02 1.30 1.19 0.91 0.89 0.82 0.76 0.74
0.46 0.44 0.59 0.92 0.88 0.82 0.86 0.97 0.95 0.94 0.99 0.90 0.84 0.86 0.85 0.83 0.84 0.87 0.85 0.77 0.74 0.71 0.69 0.68 0.63 0.54 0.54 0.59 0.61 0.68 0.80 0.73 0.75 1.02 0.97 1.13 1.18 1.05 0.82 0.78 0.74 0.78 0.88
0.59 0.48 0.51 0.75 0.77 0.76 0.84 0.91 0.95 0.93 0.90 0.81 0.83 0.88 0.89 0.88 0.92 0.94 0.94 0.87 0.84 0.81 0.82 0.81 0.76 0.65 0.60 0.62 0.66 0.68 0.74 0.67 0.57 0.81 0.92 1.13 1.24 1.15 0.82 0.73 0.77 0.78 0.95
0.93 0.76 0.65 0.62 0.63 0.69 0.84 0.90 1.06 1.10 0.94 0.82 0.80 0.80 0.79 0.80 0.83 0.89 0.90 0.85 0.81 0.84 0.84 0.83 0.79 0.74 0.72 0.70 0.67 0.66 0.71 0.70 0.65 0.72 0.74 1.05 1.20 1.11 0.86 0.76 0.74 0.79 0.95
0.90 0.87 0.82 0.81 0.77 0.77 0.79 0.96 1.24 1.37 1.20 0.94 0.82 0.78 0.79 0.74 0.73 0.80 0.77 0.78 0.81 0.89 0.92 0.92 0.87 0.80 0.82 0.82 0.78 0.73 0.74 0.60 0.51 0.55 0.64 0.83 1.11 1.08 0.94 0.78 0.68 0.69 0.83
0.83 0.83 0.82 0.85 0.89 1.00 1.01 1.07 1.33 1.49 1.46 1.09 0.89 0.86 0.77 0.61 0.74 0.78 0.64 0.78 0.85 0.96 0.99 1.02 0.95 0.87 0.92 0.89 0.84 0.86 0.70 0.44 0.47 0.55 0.69 0.83 1.12 1.21 1.03 0.80 0.70 0.67 0.64
0.71 0.71 0.73 0.75 0.74 0.80 0.86 1.18 1.39 1.31 1.38 1.11 1.05 0.97 0.88 0.89 0.92 0.79 0.69 0.81 0.95 1.06 1.02 1.02 1.03 0.97 0.87 0.69 0.66 0.70 0.46 0.37 0.42 0.47 0.58 0.80 1.18 1.34 1.12 0.86 0.70 0.64 0.55
0.56 0.51 0.48 0.52 0.53 0.58 0.67 0.85 1.13 1.39 1.44 1.40 1.34 1.25 1.17 1.06 0.88 0.77 0.76 0.75 0.85 0.94 0.88 0.95 0.94 0.82 0.74 0.66 0.64 0.56 0.44 0.42 0.44 0.45 0.60 0.79 1.09 1.31 1.18 0.92 0.70 0.61 0.59
0.57 0.57 0.48 0.42 0.46 0.46 0.50 0.64 0.88 1.11 1.26 1.28 1.19 1.10 1.27 1.20 0.96 0.85 0.92 0.93 0.89 0.92 1.02 1.04 0.97 0.89 0.80 0.72 0.71 0.62 0.56 0.56 0.51 0.51 0.69 0.68 0.88 1.10 1.20 1.06 0.83 0.68 0.67
0.57 0.62 0.56 0.43 0.37 0.42 0.45 0.51 0.60 0.84 1.00 1.00 1.13 1.09 1.13 1.11 0.97 0.88 0.88 1.02 0.97 0.97 1.06 1.14 1.01 0.92 0.92 0.89 0.84 0.80 0.74 0.68 0.67 0.57 0.61 0.64 0.73 0.93 1.23 1.28 1.10 0.83 0.82
0.51 0.53 0.54 0.49 0.47 0.46 0.43 0.43 0.48 0.54 0.71 0.74 0.75 0.74 0.94 1.04 1.02 1.03 0.92 1.00 1.13 1.15 1.10 1.08 1.05 0.95 0.90 0.92 0.89 0.89 0.86 0.70 0.68 0.68 0.67 0.65 0.58 0.62 0.95 1.28 1.24 1.05 0.98
0.44 0.44 0.47 0.54 0.58 0.57 0.57 0.57 0.54 0.55 0.58 0.65 0.72 0.73 0.86 0.96 1.03 1.04 0.92 0.95 1.08 1.25 1.21 1.12 1.04 1.01 0.85 0.80 0.87 0.90 0.91 0.79 0.74 0.80 0.72 0.71 0.59 0.56 0.75 1.17 1.39 1.25 1.16
0.34 0.33 0.39 0.45 0.52 0.58 0.62 0.66 0.62 0.66 0.67 0.65 0.70 0.68 0.73 0.88 1.04 1.12 1.03 0.98 1.13 1.30 1.44 1.46 1.27 1.16 1.01 0.90 0.93 0.93 0.88 0.89 0.84 0.79 0.76 0.80 0.74 0.64 0.68 0.85 1.18 1.43 1.35
0.27 0.26 0.29 0.34 0.41 0.48 0.57 0.65 0.67 0.69 0.83 0.91 0.79 0.65 0.72 0.85 0.96 1.17 1.24 1.19 1.22 1.37 1.41 1.43 1.40 1.21 1.14 1.09 0.98 0.92 0.84 0.85 0.89 0.74 0.75 0.80 0.83 0.74 0.74 0.64 0.70 0.89 1.06
0.24 0.23 0.25 0.31 0.33 0.36 0.47 0.64 0.73 0.70 0.80 1.01 1.05 1.01 1.05 1.12 1.18 1.34 1.42 1.40 1.40 1.45 1.41 1.51 1.65 1.40 1.21 1.24 1.15 0.99 0.88 0.82 0.83 0.77 0.80 0.80 0.85 0.84 0.81 0.67 0.58 0.45 0.59
0.18 0.19 0.24 0.29 0.32 0.34 0.42 0.53 0.62 0.72 0.90 1.11 1.17 1.22 1.35 1.37 1.40 1.54 1.63 1.65 1.58 1.48 1.51 1.66 1.97 1.84 1.49 1.32 1.36 1.21 1.00 0.87 0.90 0.80 0.80 0.88 0.87 0.88 0.94 0.87 0.69 0.59 0.48
0.10 0.12 0.18 0.27 0.36 0.42 0.48 0.62 0.77 1.00 1.11 1.25 1.40 1.39 1.41 1.46 1.49 1.57 1.78 1.88 1.81 1.76 1.84 1.84 2.02 2.13 1.90 1.68 1.60 1.75 1.52 1.25 0.91 0.72 0.75 0.82 0.90 0.97 0.94 1.00 0.90 0.77 0.71
0.08 0.11 0.17 0.32 0.51 0.72 0.82 1.05 1.33 1.58 1.66 1.58 1.57 1.61 1.59 1.63 1.70 1.66 1.77 1.97 1.93 1.88 1.87 2.03 2.26 2.48 2.43 2.22 1.97 2.02 1.75 1.53 1.38 0.90 0.70 0.76 0.86 0.96 0.98 1.07 1.09 0.99 0.93
0.12 0.22 0.38 0.62 0.92 1.17 1.32 1.52 1.72 1.83 1.87 1.80 1.81 1.79 1.77 1.69 1.62 1.61 1.72 1.93 2.06 2.13 2.16 2.22 2.21 2.47 2.66 2.49 2.40 2.10 1.80 1.66 1.72 1.46 0.99 0.76 0.81 0.87 0.91 0.97 1.06 1.11 1.11
0.40 0.59 0.88 1.13 1.38 1.53 1.58 1.68 1.88 2.03 2.19 2.20 2.08 1.93 1.82 1.78 1.70 1.61 1.66 1.73 1.78 1.85 1.96 2.10 2.17 2.36 2.46 2.57 2.56 2.39 2.14 1.97 1.54 1.49 1.48 1.21 0.97 0.78 0.79 0.91 1.07 1.16 1.17
0.83 1.01 1.22 1.36 1.51 1.51 1.52 1.58 1.71 1.90 2.06 2.08 2.09 2.05 1.92 1.78 1.67 1.58 1.53 1.64 1.66 1.66 1.78 1.90 1.99 2.20 2.34 2.45 2.51 2.38 2.22 2.14 1.91 1.64 1.48 1.45 1.32 1.01 0.82 0.84 0.95 1.05 1.14